Weather History for Alice, TX

Change the Weather History Date:

Sunday, February 10, 2013

  Actual Average Record
Temperature  
Mean Temperature 74 °F -  
Max Temperature 82 °F 69 °F 87 °F (2000)
Min Temperature 66 °F 47 °F 28 °F (2011)
Cooling Degree Days 9    
Growing Degree Days 24 (Base 50)    
Moisture  
Dew Point 59 °F    
Average Humidity 62    
Maximum Humidity 93    
Minimum Humidity 33    
Precipitation  
Precipitation 0.00 in - - ()
Sea Level Pressure  
Sea Level Pressure 29.82 in    
Wind  
Wind Speed 11 mph (NE)    
Max Wind Speed 18 mph    
Max Gust Speed 23 mph    
Visibility 9 miles    
Events      
Averages and records for this station are not official NWS values.
T = Trace of Precipitation, MM = Missing Value Source: NWS Daily Summary

Daily Weather History Graph

Daily Weather History Graph

Search for Another Location

Airport:

Trip Planner

Search our weather history database for the weather conditions in past years. The results will help you decide how hot, cold, wet, or windy it might be!

Date:

Astronomy

Feb. 10, 2013 Rise Set
Actual Time 7:12 AM CST 6:20 PM CST
Civil Twilight 6:48 AM CST 6:44 PM CST
Nautical Twilight 6:21 AM CST 7:11 PM CST
Astronomical Twilight 5:53 AM CST 7:39 PM CST
Moon 7:10 AM CST (2/10) 7:02 PM CST (2/10)
Length of Visible Light 11h 55m
Length of Day
11h 07m
Waxing Crescent, 0% of the Moon is Illuminated
Feb 10
Waxing Crescent
Feb 17
First Quarter
Feb 25
Full
Mar 4
Last Quarter
Mar 11
New

Hourly Weather History & Observations

Time (CST) Temp. Heat Index Dew Point Humidity Pressure Visibility Wind Dir Wind Speed Gust Speed Precip Events Conditions
12:53 AM 73.0 °F - 66.9 °F 81% 29.78 in 10.0 mi South 13.8 mph 23.0 mph N/A   Overcast
1:43 AM 71.6 °F - 66.2 °F 83% 29.78 in 10.0 mi SSE 10.4 mph - N/A   Overcast
1:53 AM 72.0 °F - 66.9 °F 84% 29.77 in 10.0 mi SSE 10.4 mph - N/A   Overcast
2:00 AM 71.6 °F - 66.2 °F 83% 29.78 in 10.0 mi SSE 11.5 mph - N/A   Overcast
2:53 AM 71.1 °F - 68.0 °F 90% 29.74 in 8.0 mi SE 10.4 mph - N/A   Overcast
3:53 AM 70.0 °F - 68.0 °F 93% 29.75 in 7.0 mi South 3.5 mph - N/A   Overcast
4:53 AM 73.0 °F - 66.9 °F 81% 29.74 in 10.0 mi South 12.7 mph - N/A   Overcast
5:53 AM 73.0 °F - 66.9 °F 81% 29.74 in 9.0 mi South 12.7 mph - N/A   Mostly Cloudy
6:19 AM 73.4 °F - 66.2 °F 78% 29.75 in 9.0 mi South 10.4 mph - N/A   Scattered Clouds
6:53 AM 73.4 °F - 66.2 °F 78% 29.75 in 8.0 mi South 12.7 mph - N/A   Clear
7:53 AM 72.0 °F - 66.9 °F 84% 29.78 in 7.0 mi SSW 6.9 mph - N/A   Clear
8:53 AM 73.9 °F - 66.9 °F 79% 29.81 in 8.0 mi SW 10.4 mph - N/A   Clear
9:53 AM 77.0 °F - 66.0 °F 69% 29.84 in 9.0 mi WSW 8.1 mph - N/A   Clear
10:42 AM 77.0 °F - 66.2 °F 69% 29.87 in 9.0 mi WNW 9.2 mph - N/A   Mostly Cloudy
10:53 AM 77.0 °F - 66.0 °F 69% 29.87 in 9.0 mi NW 10.4 mph - N/A   Overcast
11:41 AM 78.8 °F - 66.2 °F 65% 29.86 in 9.0 mi NW 4.6 mph - N/A   Scattered Clouds
11:53 AM 80.1 °F 82.1 °F 66.0 °F 62% 29.85 in 10.0 mi Variable 6.9 mph - N/A   Scattered Clouds
12:07 PM 78.8 °F - 66.2 °F 65% 29.85 in 10.0 mi NNW 8.1 mph - N/A   Mostly Cloudy
12:21 PM 80.6 °F 82.7 °F 66.2 °F 61% 29.84 in 10.0 mi North 8.1 mph - N/A   Scattered Clouds
12:53 PM 82.9 °F 84.6 °F 64.9 °F 54% 29.83 in 10.0 mi NNW 9.2 mph - N/A   Clear
1:53 PM 77.0 °F - 55.0 °F 47% 29.81 in 10.0 mi NNE 17.3 mph - N/A   Partly Cloudy
2:53 PM 75.0 °F - 48.0 °F 38% 29.81 in 10.0 mi NNE 18.4 mph - N/A   Clear
3:53 PM 73.9 °F - 46.0 °F 37% 29.80 in 10.0 mi NE 18.4 mph - N/A   Clear
4:53 PM 73.9 °F - 43.0 °F 33% 29.82 in 10.0 mi NNE 15.0 mph - N/A   Scattered Clouds
5:00 PM 73.4 °F - 42.8 °F 33% 29.83 in 10.0 mi NE 16.1 mph - N/A   Mostly Cloudy
5:53 PM 71.1 °F - 44.1 °F 38% 29.83 in 10.0 mi NE 16.1 mph - N/A   Overcast
6:53 PM 70.0 °F - 46.9 °F 44% 29.84 in 10.0 mi NNE 16.1 mph 23.0 mph N/A   Overcast
7:53 PM 68.0 °F - 48.0 °F 49% 29.87 in 10.0 mi NE 12.7 mph - N/A   Overcast
8:53 PM 68.0 °F - 48.0 °F 49% 29.90 in 10.0 mi NE 13.8 mph - N/A   Overcast
9:53 PM 66.9 °F - 41.0 °F 39% 29.90 in 10.0 mi NE 11.5 mph - N/A   Overcast
10:53 PM 66.0 °F - 41.0 °F 40% 29.92 in 10.0 mi NE 10.4 mph - N/A   Overcast
11:53 PM 66.0 °F - 41.0 °F 40% 29.94 in 10.0 mi NNE 10.4 mph - N/A   Overcast